Onweer radar Meer informatie blitzortung!


Regen radar Meer informatie rain snow radar


Bezoek onze andere website:

Template documentation
and downloads

And another site



15 daagse weersverwachting Kangasala (FI)

  • Overzicht
  • Per uur
  • 15 dagen
  • Extra
  • Vergelijk
  • Kaarten
  • Dagkaart
  • Meer »
  • Info
  • Statistieken
  • Directe link
    Temp 6h Neerslag Wind  
 04:48     22:14    Daglengte: 17:26 Vandaag
21:00
19°
6.8 mm
4
warningclass
 04:51     22:12    Daglengte: 17:21 Morgen
03:00
18°
5.8 mm
4
09:00
19°
3.2 mm
5
15:00
20°
6.9 mm
5
21:00
20°
1.6 mm
5
 04:53     22:09    Daglengte: 17:16 Vrijdag 30 Jul
03:00
17°
 
5
09:00
17°
 
5
15:00
18°
2.9 mm
4
21:00
16°
18.3 mm
3
 04:56     22:06    Daglengte: 17:10 Zaterdag 31 Jul
03:00
14°
5.4 mm
3
09:00
15°
 
3
15:00
21°
 
3
Locatie info
Region: Pirkanmaa
Latitude: 61.4637°N
Longitude: 24.0721°E
100 masl
Postcode: 36200
Temp/Neerslag /Baro Onweer/Dauwpunt
    Temp Baro 1h Neerslag Dauwpunt Wind UV Bewolking  
 04:48     22:14    Daglengte: 17:26 Vandaag
20:00
19°
1003.9 hPa 4.2 mm
48%
18.5°
5
Windvlaag: 1.7 m/s
68%
21:00
19°
1003.5 hPa 2.6 mm
82%
18.3°
4
Windvlaag: 1.7 m/s
58% warningclass
22:00
19°
1003.0 hPa
79%
18.4°
4
Windvlaag: 2.7 m/s
50%
23:00
19°
1002.8 hPa
72%
18.3°
4
Windvlaag: 3.6 m/s
74%
 04:51     22:12    Daglengte: 17:21 Morgen
00:00
19°
1002.3 hPa 2.1 mm
81%
17.8°
4
Windvlaag: 6.9 m/s
85%
01:00
18°
1002.1 hPa 2.0 mm
81%
17.4°
4
Windvlaag: 9.4 m/s
86%
02:00
18°
1001.8 hPa 1.6 mm
82%
17.4°
4
Windvlaag: 8.1 m/s
71%
03:00
18°
1001.3 hPa
29%
17.2°
4
Windvlaag: 8 m/s
68%
04:00
18°
1000.5 hPa
18%
17.1°
4
Windvlaag: 7.3 m/s
59%
05:00
18°
1000.0 hPa
16%
17.2°
4
Windvlaag: 8.1 m/s
57%
06:00
18°
999.6 hPa
81%
17.1°
5
Windvlaag: 8.8 m/s
77%
07:00
18°
999.0 hPa 1.6 mm
76%
17.3°
5
Windvlaag: 9 m/s
68%
08:00
18°
998.6 hPa 1.6 mm
79%
17.3°
4
Windvlaag: 8.1 m/s
70%
09:00
19°
998.2 hPa
82%
17.4°
5
Windvlaag: 8.4 m/s
44%
10:00
19°
998.0 hPa 1.7 mm
82%
17.8°
5
Windvlaag: 7.7 m/s
74%
11:00
20°
997.9 hPa 1.7 mm
82%
17.8°
4
Windvlaag: 7.6 m/s
74%
12:00
20°
997.6 hPa
82%
17.8°
5
Windvlaag: 7.9 m/s
59%
13:00
20°
997.1 hPa
82%
17.8°
5
Windvlaag: 9.2 m/s
38%
14:00
20°
996.9 hPa 1.8 mm
82%
17.8°
5
Windvlaag: 8.9 m/s
31%
15:00
20°
996.8 hPa 1.6 mm
82%
17.2°
5
Windvlaag: 7 m/s
21%
16:00
20°
996.6 hPa
82%
17.5°
6
Windvlaag: 7.6 m/s
19%
17:00
20°
996.4 hPa
82%
17.3°
6
Windvlaag: 8.6 m/s
21%
18:00
20°
996.4 hPa 1.6 mm
79%
16.7°
5
Windvlaag: 8.4 m/s
30%
19:00
20°
996.0 hPa
76%
15.8°
5
Windvlaag: 7.6 m/s
20%
20:00
20°
995.8 hPa
67%
14.9°
5
Windvlaag: 6.4 m/s
16%
21:00
20°
995.6 hPa
17%
14.8°
5
Windvlaag: 6.2 m/s
11%
22:00
19°
995.6 hPa
14%
14.7°
5
Windvlaag: 7.5 m/s
9%
23:00
19°
995.5 hPa
15%
14.7°
5
Windvlaag: 8.2 m/s
10%
 04:53     22:09    Daglengte: 17:16 Vrijdag 30 Jul
00:00
18°
995.2 hPa
17%
14.7°
5
Windvlaag: 8.2 m/s
42%
01:00
18°
994.9 hPa
15%
15.1°
5
Windvlaag: 8.4 m/s
36%
02:00
17°
994.7 hPa
21%
15.0°
5
Windvlaag: 8.4 m/s
48%
03:00
17°
994.5 hPa
15%
14.6°
5
Windvlaag: 8.9 m/s
49%
04:00
16°
994.1 hPa
15%
14.5°
5
Windvlaag: 8 m/s
12%
05:00
16°
993.7 hPa
16%
14.1°
4
Windvlaag: 8.6 m/s
13%
06:00
16°
993.3 hPa
14%
14.0°
5
Windvlaag: 7.5 m/s
5%
07:00
16°
993.1 hPa
14%
13.9°
5
Windvlaag: 7.2 m/s
6%
08:00
17°
992.7 hPa
20%
13.2°
5
Windvlaag: 8.6 m/s
11%
09:00
17°
992.4 hPa
82%
13.0°
5
Windvlaag: 8.5 m/s
35%
10:00
18°
992.1 hPa
82%
13.4°
5
Windvlaag: 7.9 m/s
15%
11:00
18°
991.8 hPa
82%
14.4°
4
Windvlaag: 7.7 m/s
23%
12:00
18°
991.5 hPa
80%
15.4°
4
Windvlaag: 8.5 m/s
28%
13:00
18°
991.1 hPa
82%
15.7°
4
Windvlaag: 8.3 m/s
39%
14:00
18°
991.0 hPa
82%
15.8°
4
Windvlaag: 8.8 m/s
33%
15:00
18°
990.9 hPa 2.9 mm
82%
15.3°
4
Windvlaag: 8.9 m/s
61%
16:00
18°
990.5 hPa 2.7 mm
82%
14.6°
4
Windvlaag: 8.2 m/s
55%
17:00
18°
990.5 hPa 3.0 mm
82%
14.9°
3
Windvlaag: 8.7 m/s
64%
18:00
17°
991.3 hPa 2.7 mm
100%
10.7°
4
Windvlaag: 7.9 m/s
71%
19:00
17°
991.3 hPa 3.0 mm
100%
10.6°
4
Windvlaag: 7.4 m/s
81%
20:00
17°
991.0 hPa 4.4 mm
100%
9.6°
3
Windvlaag: 6.3 m/s
66%
21:00
16°
990.9 hPa 2.6 mm
98%
12.6°
3
Windvlaag: 5.7 m/s
82%
22:00
15°
990.6 hPa 5.4 mm
85%
14.8°
3
Windvlaag: 5.7 m/s
54%
23:00
15°
990.6 hPa
21%
14.0°
2
Windvlaag: 4.6 m/s
51%
 04:56     22:06    Daglengte: 17:10 Zaterdag 31 Jul
00:00
14°
990.5 hPa
21%
14.3°
2
Windvlaag: 3.2 m/s
51%
01:00
14°
990.6 hPa
21%
14.1°
1
Windvlaag: 1.7 m/s
48%
02:00
14°
991.0 hPa
21%
14.2°
2
Windvlaag: 0.9 m/s
58%
03:00
14°
991.6 hPa
21%
13.6°
3
Windvlaag: 0.4 m/s
69%
04:00
14°
991.9 hPa
21%
13.5°
3
Windvlaag: 0.1 m/s
73%
05:00
14°
992.1 hPa
21%
13.3°
3
Windvlaag: -0.8 m/s
58%
06:00
14°
992.5 hPa
24%
13.7°
3
Windvlaag: -0.6 m/s
74%
07:00
14°
992.8 hPa
21%
13.4°
3
Windvlaag: -0.1 m/s
69%
08:00
15°
993.3 hPa
21%
13.0°
3
Windvlaag: 1 m/s
63%
09:00
15°
993.8 hPa
21%
12.6°
3
Windvlaag: 0.9 m/s
52%
10:00
17°
994.3 hPa
21%
12.2°
3
Windvlaag: 1.8 m/s
46%
11:00
18°
994.8 hPa
21%
11.8°
3
Windvlaag: 1.6 m/s
40%
12:00
19°
995.0 hPa
21%
11.3°
3
Windvlaag: 1.3 m/s
24%
13:00
20°
995.2 hPa
21%
10.4°
3
Windvlaag: 1.5 m/s
28%
14:00
21°
995.5 hPa
27%
10.3°
3
Windvlaag: 2.1 m/s
28%
15:00
21°
995.6 hPa
97%
11.2°
3
Windvlaag: 2.1 m/s
20%
16:00
21°
996.2 hPa
100%
12.4°
4
Windvlaag: 5.6 m/s
20%
17:00
21°
996.3 hPa
100%
12.8°
4
Windvlaag: 6.3 m/s
19%
18:00
21°
996.3 hPa
100%
13.6°
4
Windvlaag: 5.7 m/s
20%
19:00
20°
996.3 hPa
100%
13.4°
3
Windvlaag: 4.7 m/s
30%
Temp/Neerslag /Baro Onweer/Dauwpunt
    Temp Baro Neerslag Dauwpunt Wind Bewolking  
 04:48     22:14    Daglengte: 17:26 Vandaag
21:00
19°
1003.5 hPa 6.8 mm 18.3°
4
58% warningclass
 04:51     22:12    Daglengte: 17:21 Morgen
00:00
19°
1002.3 hPa 2.1 mm 17.8°
4
85%
03:00
18°
1001.3 hPa 3.7 mm 17.2°
4
68%
06:00
18°
999.6 hPa   17.1°
5
77%
09:00
19°
998.2 hPa 3.2 mm 17.4°
5
44%
12:00
20°
997.6 hPa 3.4 mm 17.8°
5
59%
15:00
20°
996.8 hPa 3.4 mm 17.2°
5
21%
18:00
20°
996.4 hPa 1.6 mm 16.7°
5
30%
21:00
20°
995.6 hPa   14.8°
5
11%
 04:53     22:09    Daglengte: 17:16 Vrijdag 30 Jul
00:00
18°
995.2 hPa   14.7°
5
42%
03:00
17°
994.5 hPa   14.6°
5
49%
06:00
16°
993.3 hPa   14.0°
5
5%
09:00
17°
992.4 hPa   13.0°
5
35%
12:00
18°
991.5 hPa   15.4°
4
28%
15:00
18°
990.9 hPa 2.9 mm 15.3°
4
61%
18:00
17°
991.3 hPa 8.4 mm 10.7°
4
71%
21:00
16°
990.9 hPa 10.0 mm 12.6°
3
82%
 04:56     22:06    Daglengte: 17:10 Zaterdag 31 Jul
00:00
14°
990.5 hPa 5.4 mm 14.3°
2
51%
03:00
14°
991.6 hPa   13.6°
3
69%
06:00
14°
992.5 hPa   13.7°
3
74%
09:00
15°
993.8 hPa   12.6°
3
52%
12:00
19°
995.0 hPa   11.3°
3
24%
15:00
21°
995.6 hPa   11.2°
3
20%
18:00
21°
996.3 hPa   13.6°
4
20%
21:00
18°
996.5 hPa 16.5 mm 11.7°
2
67%
 04:58     22:04    Daglengte: 17:06 Zondag 01 Aug
00:00
14°
997.1 hPa 25.0 mm 13.0°
2
1%
03:00
14°
996.3 hPa 26.5 mm 14.0°
2
1%
06:00
14°
995.1 hPa 27.8 mm 13.6°
2
1%
09:00
16°
994.4 hPa 27.9 mm 14.2°
3
1%
12:00
19°
994.7 hPa 29.3 mm 13.4°
1
1%
15:00
20°
995.3 hPa 30.6 mm 14.6°
2
1%
18:00
20°
996.5 hPa 32.3 mm 15.1°
2
1%
21:00
17°
997.7 hPa 34.7 mm 15.1°
3
1%
 05:01     22:01    Daglengte: 17:00 Maandag 02 Aug
00:00
14°
999.0 hPa 35.1 mm 13.9°
3
0%
03:00
13°
1000.4 hPa 35.1 mm 12.9°
3
0%
06:00
13°
1000.3 hPa 35.1 mm 12.4°
3
1%
09:00
15°
1001.0 hPa 35.1 mm 13.7°
2
1%
12:00
19°
1001.0 hPa 35.2 mm 12.1°
2
1%
15:00
19°
1000.9 hPa 36.5 mm 14.5°
2
1%
18:00
18°
1001.0 hPa 40.3 mm 14.9°
2
1%
21:00
16°
1000.9 hPa 42.7 mm 14.2°
2
1%
 05:03     21:58    Daglengte: 16:55 Dinsdag 03 Aug
00:00
13°
1001.1 hPa 42.7 mm 12.6°
2
0%
03:00
12°
1001.4 hPa 42.7 mm 11.7°
3
0%
06:00
12°
1001.9 hPa 42.7 mm 11.3°
3
1%
09:00
15°
1002.0 hPa 42.7 mm 12.4°
3
1%
12:00
19°
1002.2 hPa 42.9 mm 10.9°
3
0%
15:00
19°
1002.6 hPa 43.1 mm 9.3°
3
1%
18:00
19°
1003.4 hPa 43.1 mm 8.4°
5
1%
21:00
16°
1004.5 hPa 43.1 mm 8.7°
3
1%
 05:06     21:55    Daglengte: 16:49 Woensdag 04 Aug
00:00
11°
1006.3 hPa 43.1 mm 7.9°
4
1%
03:00
10°
Voelt als: 8.5°
1007.4 hPa 43.1 mm 8.4°
3
1%
06:00
10°
Voelt als: 8.9°
1008.2 hPa 43.1 mm 8.1°
2
1%
09:00
15°
1009.3 hPa 43.1 mm 7.4°
2
1%
12:00
19°
1009.3 hPa 43.1 mm 5.6°
2
1%
15:00
21°
1009.7 hPa 43.1 mm 3.9°
2
0%
18:00
18°
1010.8 hPa   8.4°
4
1%
21:00
15°
1012.1 hPa 86.1 mm 9.1°
2
1%
 05:09     21:53    Daglengte: 16:44 Donderdag 05 Aug
03:00
13°
1014.2 hPa 86.1 mm 8.7°
2
1%
09:00
15°
1015.5 hPa 86.1 mm 7.5°
1
1%
15:00
21°
1015.5 hPa 86.1 mm 6.2°
2
1%
21:00
17°
1016.1 hPa 86.1 mm 9.5°
3
1%
 05:11     21:50    Daglengte: 16:39 Vrijdag 06 Aug
03:00
12°
1018.0 hPa 86.1 mm 8.6°
2
1%
09:00
17°
1018.5 hPa 86.1 mm 5.5°
2
0%
15:00
23°
1017.6 hPa 86.1 mm 6.0°
2
0%
21:00
19°
1016.9 hPa 86.1 mm 10.6°
2
1%
 05:14     21:47    Daglengte: 16:33 Zaterdag 07 Aug
03:00
14°
1017.6 hPa 86.1 mm 11.1°
3
0%
09:00
16°
1010.6 hPa 2.0 mm 11.2°
1
54%
15:00
21°
1009.9 hPa 1.3 mm 11.2°
2
57%
21:00
17°
1009.5 hPa 0.7 mm 11.6°
1
72%
 05:16     21:44    Daglengte: 16:28 Zondag 08 Aug
03:00
13°
1009.7 hPa 0.4 mm 10.7°
2
71%
09:00
16°
1009.1 hPa 0.6 mm 12.1°
2
73%
15:00
20°
1009.2 hPa 2.0 mm 13.1°
1
70%
21:00
17°
1009.6 hPa 2.3 mm 12.6°
0
74%
 05:19     21:41    Daglengte: 16:22 Maandag 09 Aug
03:00
13°
1010.5 hPa 0.4 mm 11.3°
1
69%
09:00
16°
1010.6 hPa 0.3 mm 12.6°
1
69%
15:00
22°
1011.2 hPa 0.6 mm 11.9°
1
60%
21:00
17°
1011.6 hPa 0.3 mm 12.6°
1
65%
 05:22     21:38    Daglengte: 16:16 Dinsdag 10 Aug
03:00
13°
1012.4 hPa 0.3 mm 11.5°
1
67%
09:00
16°
1011.9 hPa 0.5 mm 12.7°
1
70%
15:00
21°
1011.6 hPa 1.3 mm 13.1°
1
71%
21:00
17°
1010.9 hPa 1.5 mm 13.6°
1
79%
 05:24     21:35    Daglengte: 16:11 Woensdag 11 Aug
03:00
14°
1010.8 hPa 0.9 mm 12.3°
1
76%
09:00
16°
1010.1 hPa 0.2 mm 13.0°
1
73%
15:00
20°
1010.0 hPa 1.3 mm 12.7°
1
71%
21:00
17°
1010.2 hPa 0.9 mm 12.5°
0
65%
 05:27     21:32    Daglengte: 16:05 Donderdag 12 Aug
03:00
13°
1010.7 hPa 0.2 mm 11.4°
0
52%
09:00
16°
1010.3 hPa 0.2 mm 12.3°
1
63%
15:00
21°
1009.5 hPa 0.7 mm 12.0°
1
64%
  CAPE Lifted Index Hail Supercell Tornado SRH 3km CL BTM PRES CL TOP PRES Swiss DWD icon SMHI TS
 04:48     22:14    Daglengte: 17:26 Vandaag
20:00 147 J/kg -1.3 K 0 % 0 % 0 % 0 m²/s² 0 0 -0.43 95
21:00 96 J/kg -1.8 K 0 % 0 % 0 % 0 m²/s² 0 0 -0.75 95
22:00 311 J/kg -2.0 K 0 % 0 % 0 % 0 m²/s² 0 0 -0.74 80
23:00 364 J/kg -1.7 K 0 % 0 % 0 % 0 m²/s² 0 0 0.04 3
 04:51     22:12    Daglengte: 17:21 Morgen
00:00 113 J/kg -0.8 K 0 % 0 % 0 % 0 m²/s² 0 0 0.7 80
01:00 194 J/kg -1.0 K 0 % 0 % 0 % 0 m²/s² 0 0 0.5 80
02:00 157 J/kg -1.0 K 0 % 0 % 0 % 0 m²/s² 0 0 0.86 61
03:00 98 J/kg -1.1 K 0 % 0 % 0 % 0 m²/s² 0 0 1.3 3
04:00 77 J/kg -0.8 K 0 % 0 % 0 % 0 m²/s² 0 0 1.75 2
05:00 16 J/kg -0.2 K 0 % 0 % 0 % 0 m²/s² 0 0 2.11 3
06:00 13 J/kg 0.3 K 0 % 0 % 0 % 0 m²/s² 0 0 1.98 80
07:00 16 J/kg 0.0 K 0 % 0 % 0 % 0 m²/s² 0 0 0.96 3
08:00 124 J/kg -0.9 K 0 % 0 % 0 % 0 m²/s² 0 0 0.3 3
09:00 264 J/kg -1.4 K 0 % 0 % 0 % 0 m²/s² 0 0 0.19 3
10:00 429 J/kg -2.0 K 0 % 0 % 0 % 0 m²/s² 0 0 -0.29 80
11:00 525 J/kg -2.5 K 0 % 0 % 0 % 0 m²/s² 0 0 -1.24 80
12:00 744 J/kg -3.1 K 0 % 0 % 0 % 0 m²/s² 0 0 -1.75 80
13:00 677 J/kg -2.7 K 0 % 0 % 0 % 0 m²/s² 0 0 -1.17 3
14:00 696 J/kg -2.6 K 0 % 0 % 0 % 0 m²/s² 0 0 -1.01 3
15:00 616 J/kg -2.3 K 0 % 0 % 0 % 0 m²/s² 0 0 -0.65 3
16:00 727 J/kg -2.6 K 0 % 0 % 0 % 0 m²/s² 0 0 0.22 3
17:00 725 J/kg -2.6 K 0 % 0 % 0 % 0 m²/s² 0 0 1 80
18:00 658 J/kg -2.4 K 0 % 0 % 0 % 0 m²/s² 0 0 1.38 2
19:00 343 J/kg -1.3 K 0 % 0 % 0 % 0 m²/s² 0 0 2.48 2
20:00 161 J/kg -0.3 K 0 % 0 % 0 % 0 m²/s² 0 0 3.78 2
21:00 153 J/kg -0.1 K 0 % 0 % 0 % 0 m²/s² 0 0 2.78 1
22:00 140 J/kg 0.2 K 0 % 0 % 0 % 0 m²/s² 0 0 3.08 1
23:00 138 J/kg -0.2 K 0 % 0 % 0 % 0 m²/s² 0 0 1.42 2
 04:53     22:09    Daglengte: 17:16 Vrijdag 30 Jul
00:00 197 J/kg -0.1 K 0 % 0 % 0 % 0 m²/s² 0 0 0.65 2
01:00 217 J/kg 0.1 K 0 % 0 % 0 % 0 m²/s² 0 0 3.46 2
02:00 165 J/kg 0.8 K 0 % 0 % 0 % 0 m²/s² 0 0 3.32 2
03:00 100 J/kg 1.6 K 0 % 0 % 0 % 0 m²/s² 0 0 4.57 2
04:00 53 J/kg 1.3 K 0 % 0 % 0 % 0 m²/s² 0 0 2.53 2
05:00 0 J/kg 2.5 K 0 % 0 % 0 % 0 m²/s² 0 0 6.88 2
06:00 0 J/kg 2.4 K 0 % 0 % 0 % 0 m²/s² 0 0 5.88 2
07:00 0 J/kg 0.4 K 0 % 0 % 0 % 0 m²/s² 0 0 4.15 2
08:00 103 J/kg -1.7 K 0 % 0 % 0 % 0 m²/s² 0 0 1.36 2
09:00 638 J/kg -2.9 K 0 % 0 % 0 % 0 m²/s² 0 0 -1.79 2
10:00 609 J/kg -2.9 K 0 % 0 % 0 % 0 m²/s² 0 0 -2.66 3
11:00 312 J/kg -1.6 K 0 % 0 % 0 % 0 m²/s² 0 0 -0.79 2
12:00 441 J/kg -1.9 K 0 % 0 % 0 % 0 m²/s² 0 0 0.23 3
13:00 310 J/kg -1.2 K 0 % 0 % 0 % 0 m²/s² 0 0 0.12 3
14:00 244 J/kg -0.7 K 0 % 0 % 0 % 0 m²/s² 0 0 0.08 80
15:00 100 J/kg 0.1 K 0 % 0 % 0 % 0 m²/s² 0 0 1.27 80
16:00 353 J/kg -1.5 K 0 % 0 % 0 % 0 m²/s² 0 0 -0.12 80
17:00 220 J/kg -1.4 K 0 % 0 % 0 % 0 m²/s² 0 0 0.31 80
18:00 180 J/kg -0.6 K 0 % 0 % 0 % 0 m²/s² 0 0 1.68 80
19:00 292 J/kg -0.9 K 0 % 0 % 0 % 0 m²/s² 0 0 -0 80
20:00 81 J/kg -0.1 K 0 % 0 % 0 % 0 m²/s² 0 0 1.22 80
21:00 276 J/kg -1.3 K 0 % 0 % 0 % 0 m²/s² 0 0 -1 80
22:00 197 J/kg -0.5 K 0 % 0 % 0 % 0 m²/s² 0 0 -0.17 2
23:00 76 J/kg 0.5 K 0 % 0 % 0 % 0 m²/s² 0 0 1.01 2
 04:56     22:06    Daglengte: 17:10 Zaterdag 31 Jul
00:00 2 J/kg 0.8 K 0 % 0 % 0 % 0 m²/s² 0 0 1.49 2
01:00 0 J/kg 1.3 K 0 % 0 % 0 % 0 m²/s² 0 0 1.78 2
02:00 0 J/kg 1.1 K 0 % 0 % 0 % 0 m²/s² 0 0 2.06 2
03:00 0 J/kg 1.1 K 0 % 0 % 0 % 0 m²/s² 0 0 2.96 2
04:00 0 J/kg 1.5 K 0 % 0 % 0 % 0 m²/s² 0 0 4.41 3
05:00 0 J/kg 2.2 K 0 % 0 % 0 % 0 m²/s² 0 0 5.38 3
06:00 0 J/kg 2.9 K 0 % 0 % 0 % 0 m²/s² 0 0 5.9 2
07:00 0 J/kg 3.5 K 0 % 0 % 0 % 0 m²/s² 0 0 6.5 2
08:00 0 J/kg 3.3 K 0 % 0 % 0 % 0 m²/s² 0 0 6.66 2
09:00 0 J/kg 2.5 K 0 % 0 % 0 % 0 m²/s² 0 0 6.22 2
10:00 9 J/kg 2.0 K 0 % 0 % 0 % 0 m²/s² 0 0 6.47 2
11:00 33 J/kg 1.4 K 0 % 0 % 0 % 0 m²/s² 0 0 4.94 2
12:00 18 J/kg 1.5 K 0 % 0 % 0 % 0 m²/s² 0 0 3.51 2
13:00 4 J/kg 1.7 K 0 % 0 % 0 % 0 m²/s² 0 0 3.5 3
14:00 4 J/kg 1.3 K 0 % 0 % 0 % 0 m²/s² 0 0 3.25 1
15:00 40 J/kg 0.3 K 0 % 0 % 0 % 0 m²/s² 0 0 2.79 2
16:00 287 J/kg -1.1 K 0 % 0 % 0 % 0 m²/s² 0 0 3.07 2
17:00 582 J/kg -2.1 K 0 % 0 % 0 % 0 m²/s² 0 0 3.12 2
18:00 889 J/kg -3.0 K 0 % 0 % 0 % 0 m²/s² 0 0 2.37 2
19:00 957 J/kg -3.4 K 0 % 0 % 0 % 0 m²/s² 0 0 2.42 3
Temp Baro Wind Neerslag
  EWN Forecast EWN WRFDA DWD ICON FMI HIRLAM MET Norway GFS
 04:48     22:14    Daglengte: 17:26 Vandaag
21:00 19.3° 1003.5 hPa 4.0 m/s 6.8 mm 18.3° 1003.3 hPa 4.8 m/s 12.9 mm 19.4° 1003.5 hPa 4.7 m/s 5.7 mm 19.0° 1003.7 hPa 3.2 m/s 0.0 mm 18.1° 1003.4 hPa 4.7 m/s
 04:51     22:12    Daglengte: 17:21 Morgen
00:00 18.8° 1002.3 hPa 4.4 m/s 2.1 mm 17.2° 1002.1 hPa 3.0 m/s 20.7 mm 19.0° 1002.3 hPa 5.2 m/s 1.5 mm 18.5° 1002.9 hPa 3.0 m/s 0.0 mm 17.4° 1002.1 hPa 3.8 m/s
03:00 17.9° 1001.3 hPa 3.9 m/s 3.7 mm 16.6° 1000.7 hPa 4.2 m/s 20.8 mm 18.3° 1001.4 hPa 4.4 m/s 0.6 mm 17.9° 1001.4 hPa 3.3 m/s 0.0 mm 16.3° 1000.2 hPa 4.1 m/s
06:00 18.0° 999.6 hPa 4.7 m/s 0.0 mm 16.7° 999.4 hPa 4.9 m/s 21.0 mm 18.2° 999.7 hPa 4.9 m/s 0.5 mm 17.8° 999.7 hPa 3.6 m/s 0.0 mm 17.0° 998.6 hPa 5.1 m/s
09:00 18.6° 998.2 hPa 4.6 m/s 3.2 mm 18.8° 998.8 hPa 4.7 m/s 21.2 mm 19.0° 998.4 hPa 4.8 m/s 0.8 mm 18.4° 998.0 hPa 3.5 m/s 0.0 mm 17.6° 998.2 hPa 5.2 m/s
12:00 19.7° 997.6 hPa 4.5 m/s 3.4 mm 21.6° 998.3 hPa 4.7 m/s 21.3 mm 19.8° 997.8 hPa 5.0 m/s 1.3 mm 19.4° 996.8 hPa 4.1 m/s 0.0 mm 21.9° 997.3 hPa 6.7 m/s
15:00 19.7° 996.8 hPa 4.9 m/s 3.4 mm 23.4° 997.3 hPa 6.7 m/s 21.3 mm 19.8° 997.4 hPa 5.8 m/s 0.6 mm 19.3° 995.9 hPa 4.5 m/s 0.0 mm 24.0° 996.4 hPa 5.7 m/s
18:00 19.7° 996.4 hPa 5.4 m/s 1.6 mm 23.0° 996.7 hPa 5.5 m/s 21.4 mm 19.8° 996.5 hPa 5.4 m/s 0.4 mm 19.4° 995.1 hPa 3.8 m/s 0.0 mm 22.6° 996.5 hPa 6.1 m/s
21:00 19.8° 995.6 hPa 4.6 m/s 0.0 mm 20.4° 996.1 hPa 4.4 m/s 21.4 mm 19.7° 995.6 hPa 5.3 m/s 0.0 mm 20.4° 994.6 hPa 3.8 m/s 0.0 mm 19.5° 996.4 hPa 5.3 m/s
 04:53     22:09    Daglengte: 17:16 Vrijdag 30 Jul
00:00 18.1° 995.2 hPa 5.1 m/s 0.0 mm 15.8° 995.7 hPa 3.4 m/s 21.4 mm 17.7° 995.1 hPa 5.0 m/s 0.0 mm 19.1° 994.3 hPa 5.4 m/s 0.0 mm 16.8° 996.2 hPa 5.1 m/s
03:00 16.8° 994.5 hPa 4.8 m/s 0.0 mm 14.3° 995.2 hPa 4.0 m/s 21.4 mm 16.6° 994.3 hPa 5.0 m/s 0.0 mm 17.0° 993.7 hPa 4.0 m/s 0.0 mm 15.5° 995.3 hPa 5.4 m/s
06:00 16.1° 993.3 hPa 4.6 m/s 0.0 mm 12.8° 994.6 hPa 3.1 m/s 21.4 mm 15.8° 993.1 hPa 4.9 m/s 0.0 mm 16.4° 992.1 hPa 3.6 m/s 0.0 mm 14.0° 994.8 hPa 3.8 m/s
09:00 17.5° 992.4 hPa 4.9 m/s 0.0 mm 17.4° 993.1 hPa 4.8 m/s 21.5 mm 16.5° 992.2 hPa 5.2 m/s 0.1 mm 17.5° 991.1 hPa 3.0 m/s 0.0 mm 17.0° 993.5 hPa 5.6 m/s
12:00 18.0° 991.5 hPa 4.2 m/s 0.0 mm 18.8° 992.8 hPa 5.2 m/s 32.5 mm 17.6° 991.0 hPa 4.4 m/s 0.2 mm 17.7° 990.3 hPa 2.4 m/s 0.0 mm 19.1° 992.4 hPa 5.4 m/s
15:00 18.2° 990.9 hPa 4.0 m/s 2.9 mm 19.9° 992.8 hPa 6.6 m/s 34.9 mm 17.3° 989.8 hPa 3.9 m/s 0.9 mm 18.1° 990.5 hPa 2.7 m/s 0.0 mm 14.0° 992.3 hPa 3.5 m/s
18:00 17.1° 991.3 hPa 3.6 m/s 8.4 mm 17.7° 992.0 hPa 3.9 m/s 35.0 mm 16.8° 988.6 hPa 2.6 m/s 1.8 mm 15.1° 991.6 hPa 5.9 m/s
21:00 15.9° 990.9 hPa 3.0 m/s 10.0 mm 15.8° 991.3 hPa 2.7 m/s 35.4 mm 15.9° 988.6 hPa 2.8 m/s 1.7 mm 13.5° 990.7 hPa 1.3 m/s
 04:56     22:06    Daglengte: 17:10 Zaterdag 31 Jul
00:00 14.5° 990.5 hPa 1.6 m/s 5.4 mm 11.3° 990.3 hPa 0.9 m/s 48.2 mm 14.8° 990.0 hPa 3.0 m/s 0.1 mm 12.1° 991.0 hPa 1.6 m/s
03:00 14.0° 991.6 hPa 2.6 m/s 0.0 mm 10.1° 990.7 hPa 2.5 m/s 48.3 mm 14.4° 991.8 hPa 3.4 m/s 0.0 mm 11.7° 992.1 hPa 3.5 m/s
06:00 14.1° 992.5 hPa 2.8 m/s 0.0 mm 10.9° 991.5 hPa 2.7 m/s 48.3 mm 14.5° 993.6 hPa 3.5 m/s 0.0 mm 12.1° 993.7 hPa 3.6 m/s
09:00 15.5° 993.8 hPa 2.8 m/s 0.0 mm 15.5° 993.0 hPa 2.6 m/s 48.3 mm 15.5° 995.3 hPa 3.4 m/s 0.0 mm 14.9° 995.3 hPa 3.7 m/s
12:00 18.9° 995.0 hPa 3.0 m/s 0.0 mm 19.5° 994.2 hPa 3.0 m/s 48.3 mm 18.9° 996.3 hPa 3.9 m/s 0.0 mm 19.9° 996.0 hPa 2.7 m/s
15:00 21.1° 995.6 hPa 3.2 m/s 0.0 mm 21.7° 995.0 hPa 3.2 m/s 48.3 mm 21.0° 996.6 hPa 4.0 m/s 0.0 mm 20.9° 996.9 hPa 2.1 m/s
18:00 21.1° 996.3 hPa 4.1 m/s 0.0 mm 22.0° 995.0 hPa 3.6 m/s 48.3 mm 20.8° 996.7 hPa 4.3 m/s 0.1 mm 20.3° 997.2 hPa 1.3 m/s
21:00 17.9° 996.5 hPa 2.2 m/s 16.5 mm 19.7° 995.0 hPa 1.7 m/s 48.4 mm 17.4° 996.9 hPa 2.3 m/s 0.6 mm 16.8° 997.6 hPa 2.1 m/s
 04:58     22:04    Daglengte: 17:06 Zondag 01 Aug
00:00 14.3° 997.1 hPa 1.7 m/s 25.0 mm 14.3° 997.1 hPa 1.7 m/s 25.0 mm
03:00 14.3° 996.3 hPa 2.5 m/s 26.5 mm 14.3° 996.3 hPa 2.5 m/s 26.5 mm
06:00 14.1° 995.1 hPa 2.4 m/s 27.8 mm 14.1° 995.1 hPa 2.4 m/s 27.8 mm
09:00 16.1° 994.4 hPa 2.7 m/s 27.9 mm 16.1° 994.4 hPa 2.7 m/s 27.9 mm
12:00 18.9° 994.7 hPa 1.4 m/s 29.3 mm 18.9° 994.7 hPa 1.4 m/s 29.3 mm
15:00 19.7° 995.3 hPa 2.1 m/s 30.6 mm 19.7° 995.3 hPa 2.1 m/s 30.6 mm
18:00 19.6° 996.5 hPa 2.5 m/s 32.3 mm 19.6° 996.5 hPa 2.5 m/s 32.3 mm
21:00 16.6° 997.7 hPa 2.9 m/s 34.7 mm 16.6° 997.7 hPa 2.9 m/s 34.7 mm
 05:01     22:01    Daglengte: 17:00 Maandag 02 Aug
00:00 14.2° 999.0 hPa 3.3 m/s 35.1 mm 14.2° 999.0 hPa 3.3 m/s 35.1 mm
03:00 13.1° 1000.4 hPa 3.1 m/s 35.1 mm 13.1° 1000.4 hPa 3.1 m/s 35.1 mm
06:00 12.6° 1000.3 hPa 2.5 m/s 35.1 mm 12.6° 1000.3 hPa 2.5 m/s 35.1 mm
09:00 15.3° 1001.0 hPa 2.5 m/s 35.1 mm 15.3° 1001.0 hPa 2.5 m/s 35.1 mm
12:00 18.8° 1001.0 hPa 1.9 m/s 35.2 mm 18.8° 1001.0 hPa 1.9 m/s 35.2 mm
15:00 18.6° 1000.9 hPa 2.2 m/s 36.5 mm 18.6° 1000.9 hPa 2.2 m/s 36.5 mm
18:00 18.4° 1001.0 hPa 2.2 m/s 40.3 mm 18.4° 1001.0 hPa 2.2 m/s 40.3 mm
21:00 15.9° 1000.9 hPa 2.5 m/s 42.7 mm 15.9° 1000.9 hPa 2.5 m/s 42.7 mm
 05:03     21:58    Daglengte: 16:55 Dinsdag 03 Aug
00:00 13.4° 1001.1 hPa 2.4 m/s 42.7 mm 13.4° 1001.1 hPa 2.4 m/s 42.7 mm
03:00 12.2° 1001.4 hPa 2.7 m/s 42.7 mm 12.2° 1001.4 hPa 2.7 m/s 42.7 mm
06:00 11.7° 1001.9 hPa 2.6 m/s 42.7 mm 11.7° 1001.9 hPa 2.6 m/s 42.7 mm
09:00 14.9° 1002.0 hPa 3.0 m/s 42.7 mm 14.9° 1002.0 hPa 3.0 m/s 42.7 mm
12:00 19.0° 1002.2 hPa 3.0 m/s 42.9 mm 19.0° 1002.2 hPa 3.0 m/s 42.9 mm
15:00 19.4° 1002.6 hPa 3.5 m/s 43.1 mm 19.4° 1002.6 hPa 3.5 m/s 43.1 mm
18:00 19.1° 1003.4 hPa 4.8 m/s 43.1 mm 19.1° 1003.4 hPa 4.8 m/s 43.1 mm
21:00 16.4° 1004.5 hPa 3.0 m/s 43.1 mm 16.4° 1004.5 hPa 3.0 m/s 43.1 mm
 05:06     21:55    Daglengte: 16:49 Woensdag 04 Aug
00:00 11.4° 1006.3 hPa 3.8 m/s 43.1 mm 11.4° 1006.3 hPa 3.8 m/s 43.1 mm
03:00 9.9° 1007.4 hPa 2.7 m/s 43.1 mm 9.9° 1007.4 hPa 2.7 m/s 43.1 mm
06:00 9.9° 1008.2 hPa 2.2 m/s 43.1 mm 9.9° 1008.2 hPa 2.2 m/s 43.1 mm
09:00 15.3° 1009.3 hPa 1.7 m/s 43.1 mm 15.3° 1009.3 hPa 1.7 m/s 43.1 mm
12:00 19.2° 1009.3 hPa 2.0 m/s 43.1 mm 19.2° 1009.3 hPa 2.0 m/s 43.1 mm
15:00 20.9° 1009.7 hPa 2.3 m/s 43.1 mm 20.9° 1009.7 hPa 2.3 m/s 43.1 mm
18:00 17.8° 1010.8 hPa 4.4 m/s 43.1 mm 17.8° 1010.8 hPa 4.4 m/s 43.1 mm
21:00 14.9° 1012.1 hPa 2.2 m/s 43.1 mm 14.9° 1012.1 hPa 2.2 m/s 43.1 mm
 05:09     21:53    Daglengte: 16:44 Donderdag 05 Aug
03:00 12.6° 1014.2 hPa 1.7 m/s 43.1 mm 12.6° 1014.2 hPa 1.7 m/s 43.1 mm
09:00 15.1° 1015.5 hPa 0.9 m/s 43.1 mm 15.1° 1015.5 hPa 0.9 m/s 43.1 mm
15:00 20.7° 1015.5 hPa 2.2 m/s 43.1 mm 20.7° 1015.5 hPa 2.2 m/s 43.1 mm
21:00 17.3° 1016.1 hPa 2.9 m/s 43.1 mm 17.3° 1016.1 hPa 2.9 m/s 43.1 mm
 05:11     21:50    Daglengte: 16:39 Vrijdag 06 Aug
03:00 11.5° 1018.0 hPa 1.7 m/s 43.1 mm 11.5° 1018.0 hPa 1.7 m/s 43.1 mm
09:00 16.9° 1018.5 hPa 2.0 m/s 43.1 mm 16.9° 1018.5 hPa 2.0 m/s 43.1 mm
15:00 22.8° 1017.6 hPa 2.1 m/s 43.1 mm 22.8° 1017.6 hPa 2.1 m/s 43.1 mm
21:00 19.3° 1016.9 hPa 2.4 m/s 43.1 mm 19.3° 1016.9 hPa 2.4 m/s 43.1 mm
 05:14     21:47    Daglengte: 16:33 Zaterdag 07 Aug
03:00 13.6° 1017.6 hPa 2.6 m/s 43.1 mm 13.6° 1017.6 hPa 2.6 m/s 43.1 mm
09:00 16.4° 1010.6 hPa 1.4 m/s 2.0 mm
15:00 21.1° 1009.9 hPa 1.8 m/s 1.3 mm
21:00 17.0° 1009.5 hPa 1.3 m/s 0.7 mm
 05:16     21:44    Daglengte: 16:28 Zondag 08 Aug
03:00 13.4° 1009.7 hPa 1.6 m/s 0.4 mm
09:00 16.3° 1009.1 hPa 2.0 m/s 0.6 mm
15:00 20.0° 1009.2 hPa 1.0 m/s 2.0 mm
21:00 16.6° 1009.6 hPa 0.4 m/s 2.3 mm
 05:19     21:41    Daglengte: 16:22 Maandag 09 Aug
03:00 13.0° 1010.5 hPa 0.7 m/s 0.4 mm
09:00 16.4° 1010.6 hPa 1.0 m/s 0.3 mm
15:00 21.6° 1011.2 hPa 1.2 m/s 0.6 mm
21:00 17.1° 1011.6 hPa 0.6 m/s 0.3 mm
 05:22     21:38    Daglengte: 16:16 Dinsdag 10 Aug
03:00 13.5° 1012.4 hPa 0.6 m/s 0.3 mm
09:00 16.5° 1011.9 hPa 1.4 m/s 0.5 mm
15:00 20.6° 1011.6 hPa 1.1 m/s 1.3 mm
21:00 17.0° 1010.9 hPa 0.7 m/s 1.5 mm
 05:24     21:35    Daglengte: 16:11 Woensdag 11 Aug
03:00 13.8° 1010.8 hPa 0.9 m/s 0.9 mm
09:00 15.8° 1010.1 hPa 1.0 m/s 0.2 mm
15:00 20.3° 1010.0 hPa 0.9 m/s 1.3 mm
21:00 16.5° 1010.2 hPa 0.4 m/s 0.9 mm
 05:27     21:32    Daglengte: 16:05 Donderdag 12 Aug
03:00 12.7° 1010.7 hPa 0.3 m/s 0.2 mm
09:00 15.9° 1010.3 hPa 0.8 m/s 0.2 mm
15:00 20.7° 1009.5 hPa 1.0 m/s 0.7 mm